SCP
0 0 0 0 0 0 0 0 0 0 0 0 0 0 0 0 0 0 0 0 0 0 0 0 0 0 0 0 0 0 0 0 0 0 0 0 0 0 0 0 0 0 0
0 0 0 0 0 0 0 0 0 0 0 0 0 0 0 0 0 0 0 0 0 0 0 0 0 0 0 0 0 0 0 0 0 0 0 0 0 0 0 0 0 0 0
0 0 0 0 0 0 0 0 0 0 0 0 0 0 0 0 0 0 0 0 0 0 0 0 0 0 0 0 0 0 0 0 0 0 0 0 0 0 0 0 0 0 0
0 0 0 0 0 0 0 0 0 0 0 0 0 0 0 0 0 0 0 0 0 0 0 0 0 0 0 0 0 0 0 0 0 0 0 0 0 0 0 0 0 0 0
0 0 0 0 0 0 0 0 0 0 0 0 0 0 0 0 0 0 0 0 0 0 0 0 0 0 0 0 0 0 0 0 0 0 0 0 0 0 0 0 0 0 0
0 0 0 0 0 0 0 0 0 0 0 0 0 0 0 0 0 0 0 0 0 0 0 0 0 0 0 0 0 0 0 0 0 0 0 0 0 0 0 0 0 0 0
0 0 0 0 0 0 0 0 0 0 0 0 0 0 0 0 0 0 0 0 0 0 0 0 0 0 0 0 0 0 0 0 0 0 0 0 0 0 0 0 0 0 0
0 0 0 0 0 0 0 0 0 0 0 0 0 0 0 0 0 0 0 0 0 0 0 0 0 0 0 0 0 0 0 0 0 0 0 0 0 0 0 0 0 0 0
0 0 0 0 0 0 0 0 0 0 0 0 0 0 0 0 0 0 0 0 0 0 0 0 0 0 0 0 0 0 0 0 0 0 0 0 0 0 0 0 0 0 0
0 0 0 0 0 0 0 0 0 0 0 0 0 0 0 0 0 0 0 0 0 0 0 0 0 0 0 0 0 0 0 0 0 0 0 0 0 0 0 0 0 0 0
0 0 0 0 0 0 0 0 0 0 0 0 0 0 0 0 0 0 0 0 0 0 0 0 0 0 0 0 0 0 0 0 0 0 0 0 0 0 0 0 0 0 0
0 0 0 0 0 0 0 0 0 0 0 0 0 0 0 0 0 0 0 0 0 0 0 0 0 0 0 0 0 0 0 0 0 0 0 0 0 0 0 0 0 0 0
0 0 0 0 0 0 0 0 0 0 0 0 0 0 0 0 0 0 0 0 0 0 0 0 0 0 0 0 0 0 0 0 0 0 0 0 0 0 0 0 0 0 0
0 0 0 0 0 0 0 0 0 0 0 0 0 0 0 0 0 0 0 0 0 0 0 0 0 0 0 0 0 0 0 0 0 0 0 0 0 0 0 0 0 0 0
0 0 0 0 0 -0 -0 -0 0 0 0 0 0 0 0 0 0 0 0 0 0 0 0 0 0 0 0 0 0 0 0 0 0 0 0 0 0 0 0 0 0 0 0
0 0 0 0 0 0 0 0 0 0 0 0 0 0 0 0 0 0 0 0 0 0 0 0 0 0 0 0 0 0 0 0 0 0 0 0 0 0 0 0 0 0 0
0 0 0 0 0 0 0 0 0 0 0 0 0 0 0 0 0 0 0 0 0 0 0 0 0 0 0 0 0 0 0 0 0 0 0 0 0 0 0 0 0 0 0
0 0 0 0 0 0 0 0 0 0 0 0 0 0 0 0 0 0 0 0 0 0 0 0 0 0 0 0 0 0 0 0 0 0 0 0 0 0 0 0 0 0 0
0 0 0 0 0 0 0 0 0 0 0 0 0 0 0 0 0 0 0 0 0 0 0 0 0 0 0 0 0 0 0 0 0 0 0 0 0 0 0 0 0 0 0
0 0 0 0 0 0 0 0 0 0 0 0 0 0 0 0 0 0 0 0 0 0 0 0 0 0 0 0 0 0 0 0 0 0 0 0 0 0 0 0 0 0 0
0 0 0 0 0 0 0 0 0 0 0 0 0 0 0 0 0 0 0 0 0 0 0 0 0 0 0 0 0 0 0 0 0 0 0 0 0 0 0 0 0 0 0
0 0 0 0 0 0 0 0 0 0 0 0 0 0 0 0 0 0 0 0 0 0 0 0 0 0 0 0 0 0 0 0 0 0 0 0 0 0 0 0 0 0 0
0 0 0 0 0 0 0 0 0 0 0 0 0 0 0 0 0 0 0 0 0 0 0 0 0 0 0 0 0 0 0 0 0 0 0 0 0 0 0 0 0 0 0
0 0 0 0 0 0 0 0 0 0 0 0 0 0 0 0 0 0 0 0 0 0 0 0 0 0 0 0 0 0 0 0 0 0 0 0 0 0 0 0 0 0 0
0 0 0 0 0 0 0 0 0 0 0 0 0 0 0 0 0 0 0 0 0 0 0 0 0 0 0 0 0 0 0 0 0 0 0 0 0 0 0 0 0 0 0
0 0 0 0 0 0 0 0 0 0 0 0 0 0 0 0 0 0 0 0 0 0 0 0 0 0 0 0 0 0 0 0 0 0 0 0 0 0 0 0 0 0 0
Wind_Speed
6 6 6 6 6 6 6 7 6 6 7 7 6 6 6 6 5 5 4 5 5 6 6 6 6 6 4 4 3 3 2 2 3 2 2 2 3 4 3 3 3 4 5
5 5 6 6 7 7 7 7 8 8 8 8 8 8 9 8 8 7 7 7 7 7 7 7 7 6 6 5 4 4 4 3 3 3 2 2 3 4 4 4 4 4 4
5 6 6 7 7 7 7 8 8 8 9 9 9 9 9 9 9 9 9 9 9 9 8 7 6 7 7 5 5 4 3 3 3 3 2 1 1 2 3 3 4 4 5
6 6 6 7 7 7 7 8 9 9 9 9 9 9 10 10 10 9 10 10 10 10 9 8 7 7 6 5 4 4 3 3 3 2 1 1 1 2 1 2 3 2 3
5 6 6 6 6 7 7 8 9 9 10 9 9 9 9 8 9 9 9 10 10 10 9 8 8 9 8 6 4 3 2 2 1 1 1 0 1 1 1 1 2 2 4
5 5 5 6 6 7 7 8 8 9 9 9 9 9 9 8 14 15 11 8 8 7 7 6 6 7 8 8 7 5 3 2 1 0 0 1 2 1 1 0 1 2 3
5 5 5 5 6 6 7 8 8 8 8 8 8 8 9 11 15 15 14 7 7 6 5 4 4 5 6 4 4 4 3 3 2 0 1 2 2 1 1 1 2 3 5
5 5 5 5 6 6 7 7 7 6 6 6 7 7 7 10 13 13 12 7 6 5 5 4 4 3 3 3 3 3 2 2 2 1 1 2 2 2 2 3 4 4 5
5 5 5 5 5 5 6 6 5 5 6 5 5 6 6 7 11 11 9 3 3 3 3 3 4 4 6 6 4 3 3 3 4 5 6 7 10 10 8 3 2 3 5
4 5 5 5 5 5 5 5 4 4 4 4 4 4 5 4 8 10 9 3 3 2 2 2 3 4 7 7 3 3 3 3 3 5 6 7 6 7 9 3 3 3 3
4 4 4 4 4 4 4 3 3 3 4 3 4 4 4 5 7 9 9 4 3 3 2 2 2 7 8 8 6 3 5 5 3 4 4 4 4 3 3 2 1 3 4
4 4 4 3 3 4 4 3 2 3 3 2 3 3 3 3 5 6 8 7 6 3 2 2 3 8 9 9 5 6 8 7 2 3 3 3 3 3 3 3 4 5 6
4 4 4 3 3 3 3 2 1 1 2 1 2 2 1 1 2 6 7 7 7 3 2 6 8 9 8 6 7 8 6 2 2 2 3 3 3 3 3 4 5 6 7
5 4 3 3 3 2 2 2 2 2 2 2 2 2 1 1 2 2 3 4 6 4 3 6 10 9 6 6 6 4 2 2 2 2 3 3 3 4 4 4 5 5 6
5 4 3 3 3 3 3 2 3 2 3 2 1 1 1 1 3 6 4 2 3 3 4 3 3 3 3 3 3 3 3 3 3 2 3 4 5 5 5 5 5 5 6
5 4 3 3 3 3 3 2 4 3 3 3 2 1 1 2 5 6 7 8 9 9 5 3 3 3 3 3 3 4 3 4 3 3 4 5 6 6 7 6 5 6 7
5 4 3 3 3 2 2 2 1 1 2 2 1 1 2 4 6 7 8 9 9 8 2 3 3 3 3 3 3 4 4 4 4 4 5 5 6 6 6 7 7 7 8
5 5 4 3 3 3 2 2 1 1 1 2 3 4 4 5 6 7 8 7 4 4 2 3 3 3 3 3 4 4 5 5 5 5 6 6 6 6 7 7 7 8 9
5 4 4 3 3 3 2 2 1 1 1 1 1 3 4 5 7 7 6 2 3 3 3 3 3 3 3 4 4 5 5 6 6 6 6 7 6 6 7 7 8 12 11
5 7 6 4 3 3 3 2 2 2 2 2 2 2 1 1 2 3 3 3 3 4 4 4 4 4 4 4 5 5 6 6 7 6 7 6 6 7 8 9 9 9 9
5 6 8 4 4 4 3 3 3 3 3 3 3 3 4 2 3 4 3 3 4 4 4 4 4 4 4 4 5 6 7 7 7 7 7 7 7 7 8 8 9 10 10
5 5 5 5 4 4 3 3 3 3 3 4 3 3 7 3 3 4 4 4 4 4 4 4 4 4 4 5 5 6 7 8 7 7 7 7 7 8 8 9 9 10 10
6 6 5 4 4 6 5 4 4 4 4 4 3 3 3 3 4 4 4 4 4 4 4 4 5 5 5 5 5 6 7 8 8 8 8 8 8 8 9 10 12 12 12
6 7 6 5 5 5 5 5 4 5 4 4 4 4 4 4 4 5 4 4 4 4 4 4 5 7 9 8 6 6 8 9 9 8 10 10 11 10 10 11 12 14 13
7 7 7 6 6 6 5 5 5 5 5 4 4 4 4 4 4 5 4 4 5 5 6 6 5 7 9 11 10 9 14 19 18 12 10 10 12 13 13 14 13 13 14
7 7 7 6 6 6 6 5 5 5 5 5 4 4 4 4 5 5 4 4 5 5 6 6 7 9 10 10 11 15 19 20 21 21 14 10 12 12 12 12 14 14 14
Wind_Direction
12 14 14 9 6 10 20 21 21 23 22 23 24 28 31 31 32 45 52 57 70 70 70 80 80 82 84 75 75 82 74 95 134 118 121 141 169 181 198 211 227 243 262
17 22 22 20 22 27 29 28 30 33 33 34 38 43 42 40 40 48 57 63 71 76 78 84 86 86 82 77 76 75 72 58 103 124 123 144 181 190 200 223 242 250 250
29 33 32 32 34 35 33 34 38 42 42 43 46 49 49 49 50 53 61 63 66 68 70 76 80 86 82 78 77 78 73 67 75 110 117 144 174 202 211 237 250 258 264
45 43 41 38 40 42 41 43 44 48 49 49 51 53 54 56 57 59 65 68 68 65 64 66 68 74 81 80 78 79 81 78 79 90 102 134 195 218 200 238 270 269 277
59 54 50 49 48 50 51 51 52 54 56 55 56 56 57 60 64 68 67 71 72 69 65 64 67 73 76 75 81 75 72 71 73 87 110 172 245 249 243 240 267 297 294
66 62 57 59 58 58 60 60 61 60 60 62 60 61 60 65 74 77 79 73 74 72 70 65 68 62 60 61 65 62 54 54 53 43 295 258 269 273 281 319 313 321 303
72 67 63 64 64 63 68 66 63 62 64 66 65 64 64 67 71 73 74 74 71 67 62 55 53 58 54 35 25 25 10 350 332 262 260 273 283 274 297 303 279 268 264
78 75 74 74 73 70 72 71 66 65 66 67 68 69 68 65 66 66 69 69 70 66 59 51 45 39 40 24 9 1 334 316 300 287 239 267 278 264 238 246 254 270 271
83 79 79 82 82 78 76 74 73 75 71 67 67 68 71 62 59 57 53 56 68 65 64 58 44 24 10 10 10 349 335 323 319 315 296 291 288 286 277 264 273 289 294
84 85 85 88 90 88 85 83 81 84 84 81 73 70 73 64 54 49 43 44 42 32 28 48 51 22 358 357 3 347 329 323 339 331 316 307 300 291 290 252 210 235 273
95 93 93 92 95 97 92 89 93 93 89 83 81 73 71 64 50 42 40 44 24 14 14 14 7 359 348 340 340 330 308 317 318 307 301 302 307 305 308 304 240 215 238
111 106 101 97 97 95 92 86 94 102 100 89 85 71 56 54 52 36 30 28 24 18 3 0 340 340 336 333 330 317 321 330 321 305 304 304 305 305 306 308 300 283 260
129 125 122 117 108 109 105 94 85 84 90 81 82 80 48 32 34 27 15 8 7 7 340 333 329 328 330 330 323 323 331 328 314 311 305 295 290 290 295 295 286 273 264
144 143 141 131 121 107 95 73 66 59 58 61 65 59 20 19 31 16 1 355 358 356 345 327 325 322 321 308 313 321 309 276 294 285 291 294 302 302 296 290 291 293 288
151 151 146 138 132 113 91 72 81 77 90 89 78 57 44 5 345 347 344 332 330 315 327 322 317 325 335 333 329 322 318 320 321 309 306 308 307 304 300 297 288 289 283
158 160 158 150 141 138 133 103 88 120 94 80 77 46 346 327 329 334 331 329 327 325 334 326 321 330 329 327 325 324 324 321 315 309 305 301 299 299 299 295 287 286 286
163 163 158 155 154 153 147 148 162 188 194 197 211 275 299 311 319 320 320 321 318 317 320 307 308 310 308 309 308 306 306 306 304 298 292 291 292 292 292 293 293 289 287
162 164 162 163 161 161 162 164 165 177 238 260 233 238 267 297 305 306 311 322 318 319 286 281 285 290 294 296 298 300 300 302 300 296 293 290 288 288 287 287 287 287 288
165 167 166 159 159 161 164 171 193 212 235 253 262 255 256 291 302 297 298 283 283 289 287 282 278 279 282 287 290 291 292 293 292 291 287 284 282 281 282 282 284 288 290
174 175 167 163 166 171 178 191 207 220 234 246 254 249 244 285 290 290 275 257 262 269 272 274 275 276 276 279 282 284 285 285 286 283 282 280 279 277 279 282 283 285 285
171 177 178 172 180 183 188 199 208 215 230 240 246 253 257 243 259 268 268 262 260 263 267 269 271 275 274 275 277 279 280 281 279 279 278 278 278 278 278 280 282 282 284
171 174 180 186 186 190 195 201 206 217 230 241 247 260 273 262 255 261 261 262 260 257 257 260 264 263 262 266 272 276 277 278 277 276 276 277 278 281 282 281 281 282 282
174 176 182 187 189 205 209 206 210 218 227 234 240 243 249 248 252 256 258 259 261 264 264 262 266 270 267 262 259 264 271 273 274 275 278 281 281 280 280 280 279 280 280
182 185 187 190 192 198 205 211 214 219 223 230 235 241 244 248 254 260 261 263 265 267 265 263 264 269 273 275 271 265 264 269 271 269 266 268 272 273 274 275 275 275 277
188 191 193 195 197 203 209 213 216 220 225 231 234 240 245 250 255 260 263 264 267 269 273 272 270 272 274 274 275 274 278 282 283 279 269 265 266 267 270 273 275 278 279
193 196 198 197 199 203 207 213 217 219 223 230 233 236 242 248 254 258 262 264 267 270 274 275 272 274 277 279 280 282 286 289 290 290 287 279 276 276 277 278 279 280 281